Tracking 22079 objects as of 5-Dec-2020
HD Live streaming from Space Station
objects crossing your sky now

DIRECTV 3 (DBS/NIMIQ 3)

Track DIRECTV 3 (DBS/NIMIQ 3) now!
DIRECTV 3 (DBS/NIMIQ 3) is classified as:


NORAD ID: 23598
Int'l Code: 1995-029A
Perigee: 36,119.5 km
Apogee: 36,185.9 km
Inclination: 8.5 °
Period: 1,454.5 minutes
Semi major axis: 42523 km
RCS: 31.8223 m2 (large)
Launch date: June 10, 1995
Source: United States (US)
Launch site: FRENCH GUIANA (FRGUI)

On-orbit backup; high resolution TV broadcast; USA and Western Hemispheric countries; 30 TV channels.
aabbcc
Your satellite tracking list
Your tracking list is empty




NASA's NSSDC Master Catalog

Two Line Element Set (TLE):
1 23598U 95029A   20339.56391869 -.00000274  00000-0  00000-0 0  9990
2 23598   8.5269  48.3887 0007807 336.4641  33.5994  0.99004903 92767
Source of the keplerian elements: AFSPC